Погода в Тихвине

Хотите узнать прогноз погоды в Тихвине? Тогда Вам сюда: Погода в Тихвине

Поиск расширенной информации на нашем сайте:

Полезная информация:

Новости сайта



02.01.2020
Опубликован Долгосрочный прогноз погоды по городам России и ближнего зарубежья на январь 2020 года.
Карты: Прогноз на январь и февраль 2020 года, Сравнение прогнозируемой аномалии приземной температуры воздуха на январь 2020 года по разным моделям.




Погода в Тихвине - сегодня

Время (UTC), дата Ветер
(°,м/с) 
Видим.   Явления Облачность Т
(°С)
Тd
(°С)
f(%) Тe
(°С)
Pmin
(гПа)
dP
(гПа)
Po
(мм)
O2
(г/м3)
Тmin Tmax R s Состояние
почвы
12 16.04.21 070 (В) 5{11}  10 км    1/0 верхняя 
[Ci fib]
+13.7 -8.6 20 +13  1028.8  -0.4  766  295           
15 16.04.21 070 (В) 5{10}  10 км    ясно 
+13.1 -8.2 22 +12  1028.2  -0.6  765  295           
18 16.04.21 060 (СВ) 10 км    ясно 
+8.2 -8.4 30 +8  1029.1  0.8  766  301    +14.4       
21 16.04.21 050 (СВ) 10 км    ясно 
+3.4 -6.6 48 +3  1030.2  0.9  767  306           
00 17.04.21 050 (СВ) 10 км    ясно 
-1 -6.6 66 1030.7  0.4  767  311           
03 17.04.21 050 (СВ) 10 км    3/0 верхняя 
[Ci fib]
-1.9 -5.8 75 -1  1030.7  767  312  -2.7         
06 17.04.21 050 (СВ) 10 км    ясно 
+9.1 -5.8 34 +9  1030.7  0.3  767  300  -2.7         
09 17.04.21 070 (В) 10 км    ясно 
+14.5 -7 22 +14  1030.1  -0.5  767  294           
12 17.04.21 080 (В) 3{10}  10 км    ясно 
+16.2 -6.3 21 +17  1029  -1  766  292           
15 17.04.21 050 (СВ) 4{10}  10 км    ясно 
+15.2 -5.7 23 +15  1028  -1  765  293           
18 17.04.21 060 (СВ) 10 км    ясно 
+7.2 -4.8 42 +7  1028.7  0.4  766  301    +16.5       
21 17.04.21 050 (СВ) 10 км    ясно 
+1.9 -4.1 64 +3  1029.5  0.7  766  307           
00 18.04.21 070 (В) 10 км    ясно 
-2.2 -4.9 82 -2  1029.5  -0.1  766  312           
03 18.04.21 070 (В) 10 км    ясно 
-2.3 -4 88 -2  1029.8  0.2  766  312  -3.6         
06 18.04.21 060 (СВ) 10 км    ясно 
+9.9 -4.1 37 +9  1029.4  766  298  -3.6         
09 18.04.21 060 (СВ) 10 км    ясно 
+14.5 -5.2 25 +14  1028.8  -0.5  766  294           
12 18.04.21 060 (СВ) 10 км    3/3 1000 м 
[Cu hum]
+15.5 -3.8 26 +15  1027.8  -0.9  765  292           
15 18.04.21 040 (СВ) 10 км    3/3 1000 м 
[Cu hum]
+14.2 -2.2 32 +14  1027.5  -0.4  765  293           
18 18.04.21 050 (СВ) 10 км    3/0 средняя 
[Ac trans]
+8.9 -2 46 +9  1028.8  1.2  766  299    +16.3       
21 18.04.21 040 (СВ) 10 км    ясно 
+5.4 -1.3 62 +6  1029.5  0.6  766  303           
00 19.04.21 060 (СВ) 10 км    ясно 
+0.4 -2.8 79 +1  1029.8  0.1  766  309           
03 19.04.21 070 (В) 10 км    1/0 средняя 
[Ac trans]
-0.5 -4.5 74 -1  1030.2  0.4  767  310  -2         
06 19.04.21 060 (СВ) 10 км    ясно 
+7.1 -5.3 41 +6  1030.2  0.2  767  302  -2         
09 19.04.21 090 (В) 10 км    ясно 
+11.1 -6.8 28 +10  1029.3  -0.8  766  297           
12 19.04.21 060 (СВ) 10 км    ясно 
+12.9 -6.1 26 +12  1028.3  -0.9  766  295           
Время (UTC), дата Ветер
(°,м/с) 
Видим.   Явления Облачность Т
(°С)
Тd
(°С)
f(%) Тe
(°С)
Pmin
(гПа)
dP
(гПа)
Po
(мм)
O2
(г/м3)
Тmin Tmax R s Состояние
почвы

Для получения пояснительной информации подведите курсор к названию столбца.

ПОГОДА в Тихвине - архив

Всё, что Вы хотите узнать о погоде в Тихвине - удобно и подробно!

Выберите нужную дату (начиная с 1 января 2019* года) и нажмите кнопку "Найти".
Будут отображены архивные сводки погоды по пункту Тихвин, начиная с указанной даты.


Отображать данные в формате CSV (для использования в таблицах Excel)


Внимание! Наш архив погоды предназначен исключительно для личного некоммерческого использования в познавательных целях. Если Вам необходимы официальные справки о состоянии погоды (для производственных, юридических, коммерческих и т.п. целей), обращайтесь в органы Росгидромета.

*Примечание: данная дата относится к архиву по метеостанциям СССР (Россия, СНГ, Балтия).
Архив по метеостанциям Зарубежной Европы и Азии (кроме Китая) хранится 10 дней, по другим регионам земного шара (Китай, Африка, Америка, Австралия, Океания) - 1 день.

Тихвин - район местоположения метеостанции


Название, широта, долгота, высота метеостанции:
Тихвин 59.6°ш. 33.6°д. 61 м над ур. моря [Российская Федерация]

Дополнительная информация

В oтличие oт бoльшинства пoгoдных сайтoв мы публикуем пoдрoбную метеoинфoрмацию в детальнoм прoфессиoнальнoм фoрмате.

Характеристики температуры и влажнoсти вoздуха измеряются на высoте 2 м в тени вдали oт зданий и деревьев.
Скoрoсть ветра измеряется на высoте 10 м (на урoвне рoста челoвека скoрoсть ветра ниже в 1.5-2 раза). Если метеoстанция нахoдится в гoрoде или в лесу, тo скoрoсть ветра занижена на 2-4 м/с пo сравнению с oткрытым местoм. Скoрoсть ветра над акватoриями крупных рек и oзёр, а также на вершинах хoлмoв на 2-5 м/с выше, чем в oбычных услoвиях.
Атмoсфернoе давление в разных тoчках местнoсти мoжет значительнo oтличаться oт давления на метеoстанции, в зависимoсти oт услoвий рельефа (при пoдъёме на 10 м давление пoнижается примернo на 1 мм рт.ст.).